[[{"header":{"parameterUnit":"m.s-1","parameterCategory":2,"la1":30.2991,"la2":30.254,"lo1":-89.0895,"lo2":-89.0444,"dy":0.0017,"dx":0.0017,"nx":28,"ny":28,"refTime":"2023-10-30T09:00:00:Z","depth":"0","parameterNumber":2,"parameterNumberName":"U-component_of_CURRENTS"},"data":[0,0,0,0,0,0,0,0,0,0,0,0,0,0,0,0,0,0,0,0,0,0,0,0,0,0,0,0,0,0,0,0,0,0,0,0,0,0,0,0,0,0,0,0,0,0,0,0,0,0,0,0,0,0,0,0,0,0,-0.2473,-0.2473,0,-0.2491,-0.2491,-0.2491,-0.2461,-0.246,-0.2459,-0.2458,-0.2458,-0.2459,-0.246,0,0,0,0,0,0,0,0,0,0,0,0,0,-0.2424,-0.2425,-0.2473,-0.2473,-0.2474,-0.2491,-0.2491,-0.2491,-0.2461,-0.246,-0.2459,-0.2458,-0.2458,-0.2459,-0.246,0,0,0,0,0,0,0,0,0,0,0,0,0,-0.2443,-0.2425,-0.2473,-0.2462,-0.2461,-0.2491,-0.2491,-0.2491,-0.2461,-0.246,-0.2459,-0.2457,-0.2458,-0.2459,-0.246,-0.2494,0,0,-0.2464,-0.2464,0,0,0,0,0,0,0,0,-0.2442,-0.2444,-0.2463,-0.2463,-0.2462,-0.2474,-0.2474,-0.2492,-0.2462,-0.2459,-0.2458,-0.2457,-0.2464,-0.2465,-0.2469,-0.2494,-0.2494,-0.2464,-0.2465,-0.2465,-0.2465,0,0,0,0,0,0,0,-0.244,-0.2443,-0.2478,-0.2464,-0.2463,-0.2461,-0.2462,-0.2477,-0.2467,-0.2459,-0.2458,-0.2463,-0.2463,-0.2468,-0.2468,-0.2494,-0.2464,-0.2465,-0.2466,-0.2466,-0.254,-0.2541,0,0,0,0,0,0,-0.2443,-0.2442,-0.2478,-0.2479,-0.245,-0.2463,-0.2464,-0.247,-0.2467,-0.2466,-0.2464,-0.2462,-0.2466,-0.2467,-0.2468,-0.2494,-0.2465,-0.2466,-0.2467,-0.2539,-0.254,-0.2541,0,0,0,0,0,0,-0.2442,-0.2446,-0.2477,-0.2462,-0.2466,-0.2465,-0.2472,-0.2471,-0.247,-0.2471,-0.2469,-0.2463,-0.2465,-0.2467,-0.2481,-0.2494,-0.2467,-0.2468,-0.2537,-0.2539,-0.2541,-0.2554,0,0,0,0,0,0,-0.244,-0.2445,-0.2445,-0.2463,-0.2467,-0.2494,-0.2474,-0.2472,-0.2476,-0.2473,-0.2471,-0.2469,-0.2464,-0.2479,-0.2482,-0.2495,-0.2469,-0.2536,-0.2538,-0.254,-0.2552,-0.2557,-0.256,0,0,0,0,0,-0.2439,-0.2446,-0.2445,-0.2449,-0.2469,-0.2494,-0.2497,-0.249,-0.2477,-0.2482,-0.248,-0.2469,-0.2496,-0.2482,-0.2485,-0.2498,-0.2534,-0.2537,-0.254,-0.2551,-0.2556,-0.256,0,0,0,0,0,0,-0.2421,-0.2445,-0.2444,-0.2456,-0.2474,-0.249,-0.2493,-0.2493,-0.2497,-0.249,-0.2485,-0.2484,-0.2503,-0.2505,-0.2489,-0.2528,-0.2514,-0.2518,-0.2522,-0.2526,-0.253,-0.2525,-0.247,0,0,0,0,0,-0.2421,-0.2431,-0.2455,-0.2463,-0.2474,-0.2484,-0.2491,-0.2493,-0.2502,-0.2501,-0.2501,-0.2506,-0.2521,-0.2524,-0.2537,-0.256,-0.2555,-0.2572,-0.2576,-0.2579,-0.2579,-0.2591,-0.2595,-0.255,-0.255,-0.255,0,0,-0.2414,-0.243,-0.2433,-0.246,-0.2471,-0.2494,-0.2484,-0.2501,-0.2515,-0.2503,-0.2515,-0.252,-0.2531,-0.2553,-0.2562,-0.2552,-0.2589,-0.2582,-0.2585,-0.2583,-0.2594,-0.2598,-0.2602,-0.2552,-0.2552,-0.2552,0,0,-0.2417,-0.2424,-0.2438,-0.2457,-0.2483,-0.2496,-0.2503,-0.2523,-0.2524,-0.2546,-0.2541,-0.2553,-0.2574,-0.2582,-0.259,-0.2626,-0.2611,-0.2632,-0.2644,-0.2655,-0.2659,-0.2662,-0.2654,-0.2657,-0.2631,-0.2631,-0.2632,0,-0.2408,-0.2427,-0.2445,-0.247,-0.2484,-0.2499,-0.2521,-0.2535,-0.2555,-0.2562,-0.2551,-0.2586,-0.2589,-0.2619,-0.2626,-0.2634,-0.263,-0.2621,-0.2658,-0.2661,-0.2664,-0.2656,-0.2658,-0.2632,-0.2632,-0.2632,-0.2632,0,-0.2426,-0.244,-0.2452,-0.2487,-0.2511,-0.2528,-0.2559,-0.2575,-0.2579,-0.2592,-0.2617,-0.2624,-0.264,-0.2649,-0.2646,-0.2673,-0.266,-0.2661,-0.2641,-0.2669,-0.2659,-0.2661,-0.2634,-0.2634,-0.2633,-0.2633,0,0,-0.2402,-0.2453,-0.2454,-0.247,-0.2517,-0.2537,-0.2573,-0.2606,-0.2623,-0.2639,-0.2658,-0.2681,-0.2678,-0.2687,-0.2688,-0.2696,-0.2706,-0.2683,-0.2683,-0.2666,-0.2717,-0.2706,-0.2707,-0.2711,-0.2711,-0.2712,-0.2699,0,-0.2403,-0.2439,-0.2473,-0.2506,-0.2524,-0.2561,-0.2592,-0.2627,-0.265,-0.2674,-0.2687,-0.2705,-0.2696,-0.2699,-0.2709,-0.2711,-0.2713,-0.2708,-0.2702,-0.2702,-0.268,-0.271,-0.2661,-0.2647,-0.2701,-0.2701,-0.2702,0,-0.2404,-0.2427,-0.2456,-0.2507,-0.252,-0.2547,-0.2596,-0.2627,-0.2674,-0.2693,-0.2718,-0.2728,-0.2746,-0.2731,-0.2743,-0.2738,-0.2727,-0.2724,-0.2724,-0.271,-0.2695,-0.2631,-0.2648,-0.2578,-0.2704,-0.2704,-0.2704,0,-0.2361,-0.2413,-0.243,-0.2447,-0.2511,-0.2532,-0.2564,-0.2622,-0.2651,-0.2698,-0.2724,-0.2747,-0.2758,-0.2757,-0.2756,-0.2746,-0.2765,-0.2751,-0.273,-0.2728,-0.2684,-0.2678,-0.2624,-0.2757,-0.2757,-0.2757,-0.2757,0,-0.2342,-0.2354,-0.2406,-0.2415,-0.2438,-0.2499,-0.2532,-0.2573,-0.2635,-0.2669,-0.2718,-0.2751,-0.2765,-0.2783,-0.2768,-0.276,-0.2775,-0.2736,-0.2731,-0.2688,-0.2682,-0.2618,-0.259,-0.2756,-0.2757,-0.2757,-0.2757,0,-0.2287,-0.2324,-0.2341,-0.2397,-0.2417,-0.2427,-0.2504,-0.2526,-0.26,-0.2648,-0.2662,-0.2748,-0.2777,-0.2791,-0.2796,-0.2775,-0.2712,-0.2759,-0.27,-0.2689,-0.2594,-0.257,-0.252,-0.2436,-0.2722,-0.2722,-0.2722,0,-0.2261,-0.226,-0.2305,-0.2312,-0.2334,-0.2368,-0.2391,-0.2482,-0.2518,-0.2644,-0.2659,-0.273,-0.2779,-0.2801,-0.2799,-0.2783,-0.2698,-0.269,-0.2667,-0.2586,-0.2556,-0.2532,-0.2463,-0.2606,-0.2605,-0.2604,-0.2603,0,-0.2198,-0.2207,-0.222,-0.2227,-0.2246,-0.2276,-0.2324,-0.2357,-0.2465,-0.2541,-0.2641,-0.2703,-0.278,-0.2786,-0.2781,-0.2741,-0.2602,-0.267,-0.2604,-0.2478,-0.2432,-0.235,-0.2605,-0.2595,-0.2596,-0.2596,-0.2597,-0.2597,-0.214,-0.2121,-0.2128,-0.2122,-0.2145,-0.216,-0.2157,-0.2252,-0.2321,-0.2436,-0.2557,-0.2682,-0.2738,-0.2761,-0.2709,-0.2587,-0.2576,-0.2476,-0.2456,-0.2443,-0.2353,-0.2587,-0.2566,-0.2567,-0.2568,-0.2568,-0.2568,0,-0.2064,-0.2041,-0.2025,-0.2015,-0.1988,-0.204,-0.2085,-0.2086,-0.2148,-0.2353,-0.2464,-0.2664,-0.2647,-0.2659,-0.2582,-0.2417,-0.233,-0.2279,-0.2219,-0.2158,-0.2378,-0.2362,-0.2276,-0.2276,-0.2276,-0.2276,-0.2276,-0.2276,-0.2028,-0.1972,-0.1942,-0.1849,-0.1841,-0.1786,-0.1788,-0.1845,-0.1969,-0.2185,-0.2407,-0.2632,-0.2695,-0.2666,-0.2429,-0.2271,-0.2092,-0.2036,-0.1976,-0.2122,-0.2138,-0.2154,-0.2131,-0.1998,-0.1998,-0.1717,-0.1715,-0.1713]},{"header":{"parameterUnit":"m.s-1","parameterCategory":2,"la1":30.2991,"la2":30.254,"lo1":-89.0895,"lo2":-89.0444,"dy":0.0017,"dx":0.0017,"nx":28,"ny":28,"refTime":"2023-10-30T09:00:00:Z","depth":"0","parameterNumber":3,"parameterNumberName":"V-component_of_CURRENTS"},"data":[0,0,0,0,0,0,0,0,0,0,0,0,0,0,0,0,0,0,0,0,0,0,0,0,0,0,0,0,0,0,0,0,0,0,0,0,0,0,0,0,0,0,0,0,0,0,0,0,0,0,0,0,0,0,0,0,0,0,-0.04,-0.0399,0,-0.0344,-0.0343,-0.0342,-0.0302,-0.0301,-0.0301,-0.0301,-0.0226,-0.0224,-0.0223,0,0,0,0,0,0,0,0,0,0,0,0,0,-0.0465,-0.0464,-0.04,-0.0399,-0.0398,-0.0344,-0.0343,-0.0342,-0.0302,-0.0301,-0.0301,-0.0301,-0.0226,-0.0224,-0.0222,0,0,0,0,0,0,0,0,0,0,0,0,0,-0.0426,-0.0464,-0.04,-0.0372,-0.0369,-0.0344,-0.0343,-0.0342,-0.0302,-0.0301,-0.0301,-0.03,-0.0227,-0.0225,-0.0222,-0.0216,0,0,-0.0214,-0.0213,0,0,0,0,0,0,0,0,-0.0428,-0.0423,-0.0377,-0.0374,-0.037,-0.0329,-0.0339,-0.0299,-0.0302,-0.0327,-0.0301,-0.03,-0.0259,-0.0254,-0.0244,-0.0212,-0.0209,-0.0214,-0.0213,-0.0211,-0.0211,0,0,0,0,0,0,0,-0.0431,-0.0425,-0.0377,-0.0376,-0.0372,-0.036,-0.0354,-0.0331,-0.0296,-0.0325,-0.0322,-0.0316,-0.0257,-0.0247,-0.0242,-0.0208,-0.0214,-0.0212,-0.021,-0.0209,-0.0174,-0.0175,0,0,0,0,0,0,-0.0439,-0.0428,-0.0379,-0.0376,-0.0399,-0.0359,-0.0352,-0.0343,-0.0296,-0.0289,-0.0317,-0.0314,-0.0252,-0.0245,-0.024,-0.0239,-0.0212,-0.0209,-0.0208,-0.0174,-0.0175,-0.0175,0,0,0,0,0,0,-0.044,-0.0435,-0.0381,-0.0401,-0.0393,-0.0359,-0.0348,-0.0342,-0.0332,-0.0291,-0.0283,-0.0313,-0.0251,-0.0243,-0.0228,-0.0236,-0.0208,-0.0206,-0.0173,-0.0174,-0.0175,-0.0233,0,0,0,0,0,0,-0.0443,-0.0436,-0.0436,-0.0401,-0.0393,-0.0374,-0.0349,-0.0341,-0.0329,-0.0326,-0.0285,-0.0277,-0.025,-0.0232,-0.0225,-0.0232,-0.0204,-0.0172,-0.0174,-0.0175,-0.023,-0.0235,-0.024,0,0,0,0,0,-0.0445,-0.0449,-0.0436,-0.043,-0.0392,-0.0374,-0.0369,-0.0342,-0.0329,-0.033,-0.0305,-0.0278,-0.0234,-0.0231,-0.0222,-0.0228,-0.0172,-0.0173,-0.0175,-0.0228,-0.0234,-0.024,0,0,0,0,0,0,-0.0479,-0.0444,-0.0429,-0.0422,-0.0402,-0.0367,-0.0366,-0.0347,-0.0328,-0.0325,-0.0286,-0.0277,-0.0267,-0.0242,-0.0239,-0.0222,-0.0199,-0.0199,-0.0242,-0.0248,-0.0253,-0.0258,-0.0202,0,0,0,0,0,-0.0486,-0.0479,-0.0445,-0.0441,-0.0433,-0.0401,-0.0391,-0.0373,-0.0349,-0.034,-0.0311,-0.0284,-0.0267,-0.0253,-0.0233,-0.0222,-0.0192,-0.0221,-0.0226,-0.0231,-0.023,-0.0196,-0.0198,-0.018,-0.018,-0.018,0,0,-0.0499,-0.0479,-0.0475,-0.0448,-0.043,-0.0428,-0.0394,-0.0383,-0.0382,-0.0335,-0.0328,-0.0302,-0.0269,-0.0261,-0.0253,-0.0239,-0.0222,-0.0233,-0.0237,-0.0233,-0.0197,-0.0199,-0.02,-0.0181,-0.018,-0.018,0,0,-0.0528,-0.0503,-0.0509,-0.0496,-0.0473,-0.0452,-0.0452,-0.0419,-0.0405,-0.0394,-0.0364,-0.0344,-0.0313,-0.0292,-0.0277,-0.0297,-0.0253,-0.0291,-0.0315,-0.0283,-0.0284,-0.0284,-0.0256,-0.0253,-0.029,-0.029,-0.029,0,-0.0547,-0.0545,-0.051,-0.0515,-0.0512,-0.0467,-0.0479,-0.0458,-0.0426,-0.0418,-0.0401,-0.0357,-0.0328,-0.0316,-0.0322,-0.0308,-0.0282,-0.0296,-0.0289,-0.0289,-0.0288,-0.0259,-0.0255,-0.0293,-0.0293,-0.0292,-0.0292,0,-0.058,-0.0579,-0.0583,-0.0572,-0.0565,-0.0566,-0.0535,-0.0524,-0.05,-0.0475,-0.0455,-0.0414,-0.0386,-0.0376,-0.0353,-0.0339,-0.032,-0.0302,-0.0274,-0.0293,-0.0261,-0.0256,-0.0297,-0.0296,-0.0295,-0.0295,0,0,-0.0619,-0.0609,-0.061,-0.0621,-0.0596,-0.0598,-0.0591,-0.0574,-0.0572,-0.0532,-0.0525,-0.0488,-0.0455,-0.0436,-0.0402,-0.0369,-0.0345,-0.0336,-0.0333,-0.0309,-0.0273,-0.0245,-0.0237,-0.0324,-0.0323,-0.0323,-0.0255,0,-0.0656,-0.0682,-0.0664,-0.0693,-0.0705,-0.0669,-0.0669,-0.0648,-0.0617,-0.0596,-0.0542,-0.0523,-0.0481,-0.0468,-0.0429,-0.0367,-0.0334,-0.0365,-0.0257,-0.0254,-0.0227,-0.0231,-0.0261,-0.0201,-0.025,-0.0249,-0.0248,0,-0.0696,-0.0707,-0.0742,-0.0755,-0.0757,-0.0769,-0.0762,-0.0754,-0.0706,-0.0682,-0.0639,-0.059,-0.0539,-0.05,-0.0398,-0.0419,-0.0352,-0.0299,-0.0295,-0.0243,-0.0216,-0.0187,-0.019,-0.0101,-0.024,-0.0241,-0.0241,0,-0.0747,-0.0765,-0.0798,-0.0802,-0.0804,-0.0818,-0.0815,-0.0782,-0.0779,-0.073,-0.0718,-0.0644,-0.0607,-0.0515,-0.0397,-0.0398,-0.0276,-0.0265,-0.0177,-0.0174,-0.0165,-0.0162,-0.0068,-0.0192,-0.0192,-0.0192,-0.0193,0,-0.0795,-0.0821,-0.0828,-0.0849,-0.0894,-0.0872,-0.0902,-0.0883,-0.0852,-0.0858,-0.0766,-0.0747,-0.0608,-0.0516,-0.0411,-0.0275,-0.0285,-0.0179,-0.0153,-0.0187,-0.0187,-0.008,-0.0015,-0.019,-0.019,-0.0191,-0.0191,0,-0.0846,-0.0845,-0.089,-0.0909,-0.0923,-0.0953,-0.0969,-0.0985,-0.0939,-0.0942,-0.0929,-0.0821,-0.0703,-0.0554,-0.0399,-0.0298,-0.0097,-0.0119,-0.0168,-0.0148,0.0009,0.0071,0.0281,0.0335,-0.002,-0.0019,-0.0018,0,-0.0874,-0.0899,-0.0947,-0.0984,-0.0999,-0.1035,-0.1063,-0.1038,-0.1051,-0.0992,-0.1001,-0.0879,-0.0809,-0.0553,-0.0352,-0.0158,-0.0048,-0.0056,-0.0062,0.0019,0.0109,0.0201,0.0238,-0.0076,-0.0075,-0.0075,-0.0075,0,-0.0928,-0.0943,-0.0982,-0.1058,-0.1106,-0.1155,-0.1188,-0.1213,-0.1181,-0.1177,-0.1142,-0.1076,-0.0814,-0.0613,-0.0327,-0.0194,0.0028,-0.0043,0.0053,0.0088,0.0185,0.0247,-0.0122,-0.0072,-0.0072,-0.0072,-0.0072,-0.0073,-0.0968,-0.101,-0.1064,-0.1138,-0.1197,-0.1266,-0.1316,-0.1351,-0.1383,-0.1394,-0.1286,-0.1215,-0.085,-0.0457,-0.0293,0.0034,0.0083,0.0111,0.0184,0.0273,0.0323,-0.0036,0.004,0.004,0.004,0.0041,0.0041,0,-0.1022,-0.1069,-0.1142,-0.123,-0.1311,-0.1322,-0.1396,-0.145,-0.152,-0.151,-0.1484,-0.1172,-0.0832,-0.0459,0.0037,0.0225,0.0304,0.0331,0.0429,0.0456,0.013,0.012,0.0201,0.0201,0.0201,0.0201,0.0201,0.0201,-0.1052,-0.1132,-0.1171,-0.1313,-0.1377,-0.1484,-0.1533,-0.1617,-0.1634,-0.1622,-0.1504,-0.1386,-0.0804,0.0047,0.0463,0.0498,0.0649,0.0677,0.0783,0.0512,0.0496,0.048,0.0484,0.0641,0.0642,0.1064,0.1068,0.107]}],[{"header":{"parameterUnit":"m.s-1","parameterCategory":2,"la1":30.2991,"la2":30.254,"lo1":-89.0895,"lo2":-89.0444,"dy":0.0017,"dx":0.0017,"nx":28,"ny":28,"refTime":"2023-10-30T09:00:00:Z","depth":"2","parameterNumber":2,"parameterNumberName":"U-component_of_CURRENTS"},"data":[0,0,0,0,0,0,0,0,0,0,0,0,0,0,0,0,0,0,0,0,0,0,0,0,0,0,0,0,0,0,0,0,0,0,0,0,0,0,0,0,0,0,0,0,0,0,0,0,0,0,0,0,0,0,0,0,0,0,-0.2458,-0.2459,0,-0.2478,-0.2478,-0.2478,-0.2449,-0.2448,-0.2447,-0.2446,-0.2448,-0.2449,-0.2449,0,0,0,0,0,0,0,0,0,0,0,0,0,-0.241,-0.241,-0.2458,-0.2459,-0.2459,-0.2478,-0.2478,-0.2478,-0.2449,-0.2448,-0.2447,-0.2446,-0.2447,-0.2448,-0.2449,0,0,0,0,0,0,0,0,0,0,0,0,0,-0.2428,-0.2411,-0.2458,-0.2448,-0.2448,-0.2478,-0.2478,-0.2478,-0.2449,-0.2448,-0.2447,-0.2445,-0.2447,-0.2448,-0.245,-0.2483,0,0,-0.2453,-0.2454,0,0,0,0,0,0,0,0,-0.2427,-0.243,-0.2449,-0.2449,-0.2448,-0.2461,-0.2461,-0.2479,-0.2449,-0.2447,-0.2446,-0.2445,-0.2453,-0.2453,-0.2457,-0.2483,-0.2483,-0.2453,-0.2454,-0.2455,-0.2455,0,0,0,0,0,0,0,-0.2426,-0.2429,-0.2464,-0.245,-0.2449,-0.2448,-0.2448,-0.2464,-0.2455,-0.2447,-0.2445,-0.2451,-0.2452,-0.2456,-0.2457,-0.2483,-0.2453,-0.2455,-0.2455,-0.2456,-0.253,-0.2531,0,0,0,0,0,0,-0.2428,-0.2428,-0.2463,-0.2465,-0.2437,-0.2449,-0.245,-0.2457,-0.2455,-0.2454,-0.2452,-0.2449,-0.2455,-0.2456,-0.2457,-0.2484,-0.2455,-0.2456,-0.2457,-0.2529,-0.253,-0.2532,0,0,0,0,0,0,-0.2427,-0.2431,-0.2463,-0.2448,-0.2452,-0.2452,-0.2459,-0.2458,-0.2457,-0.2459,-0.2457,-0.2451,-0.2454,-0.2455,-0.2471,-0.2484,-0.2456,-0.2458,-0.2527,-0.2529,-0.2531,-0.2545,0,0,0,0,0,0,-0.2426,-0.2431,-0.2431,-0.2448,-0.2453,-0.248,-0.246,-0.2459,-0.2464,-0.246,-0.2459,-0.2458,-0.2453,-0.2469,-0.2472,-0.2485,-0.2459,-0.2526,-0.2528,-0.253,-0.2543,-0.2547,-0.2551,0,0,0,0,0,-0.2424,-0.2432,-0.2431,-0.2435,-0.2455,-0.248,-0.2483,-0.2477,-0.2465,-0.247,-0.2469,-0.2458,-0.2486,-0.2471,-0.2474,-0.2488,-0.2525,-0.2528,-0.253,-0.2542,-0.2547,-0.2551,0,0,0,0,0,0,-0.2407,-0.243,-0.243,-0.2442,-0.246,-0.2476,-0.2479,-0.248,-0.2484,-0.2478,-0.2473,-0.2473,-0.2492,-0.2495,-0.2478,-0.2519,-0.2504,-0.2508,-0.2512,-0.2517,-0.252,-0.2515,-0.246,0,0,0,0,0,-0.2407,-0.2417,-0.2441,-0.2449,-0.246,-0.2471,-0.2478,-0.248,-0.2489,-0.2489,-0.2489,-0.2495,-0.251,-0.2514,-0.2527,-0.255,-0.2545,-0.2563,-0.2567,-0.257,-0.257,-0.2582,-0.2586,-0.2541,-0.2541,-0.2541,0,0,-0.24,-0.2416,-0.2419,-0.2446,-0.2457,-0.248,-0.2471,-0.2488,-0.2502,-0.2491,-0.2503,-0.2509,-0.2521,-0.2543,-0.2552,-0.2542,-0.258,-0.2573,-0.2576,-0.2574,-0.2585,-0.2589,-0.2593,-0.2543,-0.2542,-0.2542,0,0,-0.2403,-0.241,-0.2424,-0.2443,-0.2469,-0.2482,-0.2489,-0.251,-0.2511,-0.2535,-0.2529,-0.2543,-0.2564,-0.2572,-0.258,-0.2617,-0.2602,-0.2623,-0.2635,-0.2647,-0.265,-0.2653,-0.2646,-0.2648,-0.2623,-0.2623,-0.2623,0,-0.2394,-0.2413,-0.2431,-0.2456,-0.247,-0.2485,-0.2507,-0.2522,-0.2542,-0.2551,-0.254,-0.2575,-0.2579,-0.2609,-0.2617,-0.2624,-0.2621,-0.2612,-0.265,-0.2653,-0.2655,-0.2647,-0.265,-0.2624,-0.2624,-0.2624,-0.2624,0,-0.2413,-0.2427,-0.2438,-0.2472,-0.2496,-0.2514,-0.2545,-0.2562,-0.2567,-0.258,-0.2606,-0.2613,-0.2631,-0.2639,-0.2637,-0.2664,-0.2651,-0.2653,-0.2632,-0.266,-0.2651,-0.2653,-0.2625,-0.2625,-0.2625,-0.2624,0,0,-0.2389,-0.2439,-0.244,-0.2456,-0.2503,-0.2523,-0.2559,-0.2593,-0.261,-0.2627,-0.2647,-0.2671,-0.2668,-0.2678,-0.2679,-0.2687,-0.2698,-0.2675,-0.2675,-0.2657,-0.2709,-0.2697,-0.2697,-0.2702,-0.2703,-0.2704,-0.2691,0,-0.239,-0.2426,-0.2459,-0.2492,-0.251,-0.2547,-0.2578,-0.2614,-0.2638,-0.2662,-0.2676,-0.2695,-0.2686,-0.2689,-0.2699,-0.2702,-0.2705,-0.27,-0.2694,-0.2693,-0.2671,-0.27,-0.2448,-0.2416,-0.2693,-0.2693,-0.2693,0,-0.239,-0.2414,-0.2443,-0.2493,-0.2506,-0.2533,-0.2582,-0.2613,-0.2662,-0.268,-0.2706,-0.2717,-0.2736,-0.2722,-0.2734,-0.2729,-0.2719,-0.2716,-0.2716,-0.27,-0.2685,-0.2436,-0.2409,-0.2696,-0.2696,-0.2696,-0.2696,0,-0.2348,-0.24,-0.2417,-0.2433,-0.2498,-0.2519,-0.2551,-0.2609,-0.2638,-0.2686,-0.2712,-0.2736,-0.2747,-0.2747,-0.2747,-0.2737,-0.2756,-0.2743,-0.272,-0.2718,-0.2501,-0.248,-0.2748,-0.2748,-0.2748,-0.2749,-0.2749,0,-0.2329,-0.2341,-0.2394,-0.2402,-0.2426,-0.2486,-0.2519,-0.2561,-0.2623,-0.2656,-0.2706,-0.2739,-0.2754,-0.2772,-0.2758,-0.275,-0.2765,-0.2726,-0.2721,-0.2501,-0.2481,-0.2724,-0.2721,-0.2748,-0.2748,-0.2748,-0.2748,0,-0.2274,-0.2312,-0.2328,-0.2385,-0.2404,-0.2415,-0.2491,-0.2514,-0.2588,-0.2635,-0.265,-0.2736,-0.2764,-0.278,-0.2785,-0.2764,-0.2757,-0.2748,-0.2486,-0.2453,-0.2701,-0.27,-0.2711,-0.2711,-0.271,-0.271,-0.271,0,-0.2249,-0.2248,-0.2292,-0.23,-0.2322,-0.2357,-0.2379,-0.247,-0.2505,-0.2631,-0.2645,-0.2716,-0.2756,-0.2779,-0.2719,-0.2688,-0.2759,-0.2466,-0.2415,-0.2707,-0.2701,-0.2699,-0.2698,-0.2115,-0.211,-0.2106,-0.2102,0,-0.2186,-0.2196,-0.2208,-0.2215,-0.2235,-0.2265,-0.2312,-0.2345,-0.2452,-0.2518,-0.2616,-0.267,-0.2693,-0.2565,-0.2538,-0.2485,-0.2452,-0.2386,-0.2737,-0.2194,-0.2152,-0.2145,-0.2161,-0.2065,-0.2069,-0.2072,-0.2074,-0.2075,-0.2129,-0.211,-0.2117,-0.2112,-0.2135,-0.2148,-0.2145,-0.2209,-0.2264,-0.2312,-0.2462,-0.2458,-0.2446,-0.2296,-0.2194,-0.2102,-0.2289,-0.2166,-0.2175,-0.2189,-0.2152,-0.2116,-0.2013,-0.2016,-0.2019,-0.2021,-0.2024,0,-0.2044,-0.2031,-0.2015,-0.2005,-0.1968,-0.203,-0.2073,-0.2034,-0.2045,-0.2116,-0.2163,-0.1983,-0.1902,-0.1905,-0.1708,-0.1701,-0.1626,-0.1625,-0.1502,-0.1541,-0.1576,-0.1504,-0.1195,-0.1192,-0.119,-0.1188,0,0,-0.2007,-0.1946,-0.1916,-0.1819,-0.182,-0.1746,-0.1746,-0.1718,-0.1728,-0.1696,-0.1689,-0.1794,-0.1872,-0.1524,-0.1444,-0.1296,-0.14,-0.1225,-0.189,-0.1785,-0.1816,-0.1891,-0.1827,0,0,0,0,0]},{"header":{"parameterUnit":"m.s-1","parameterCategory":2,"la1":30.2991,"la2":30.254,"lo1":-89.0895,"lo2":-89.0444,"dy":0.0017,"dx":0.0017,"nx":28,"ny":28,"refTime":"2023-10-30T09:00:00:Z","depth":"2","parameterNumber":3,"parameterNumberName":"V-component_of_CURRENTS"},"data":[0,0,0,0,0,0,0,0,0,0,0,0,0,0,0,0,0,0,0,0,0,0,0,0,0,0,0,0,0,0,0,0,0,0,0,0,0,0,0,0,0,0,0,0,0,0,0,0,0,0,0,0,0,0,0,0,0,0,-0.0339,-0.0338,0,-0.0283,-0.0283,-0.0282,-0.0243,-0.0242,-0.0242,-0.0242,-0.0168,-0.0166,-0.0164,0,0,0,0,0,0,0,0,0,0,0,0,0,-0.0402,-0.0401,-0.0339,-0.0338,-0.0337,-0.0284,-0.0283,-0.0282,-0.0243,-0.0242,-0.0242,-0.0242,-0.0168,-0.0166,-0.0164,0,0,0,0,0,0,0,0,0,0,0,0,0,-0.0363,-0.0401,-0.0339,-0.0312,-0.0309,-0.0284,-0.0283,-0.0282,-0.0243,-0.0242,-0.0242,-0.0242,-0.0169,-0.0166,-0.0164,-0.0157,0,0,-0.0156,-0.0155,0,0,0,0,0,0,0,0,-0.0366,-0.0361,-0.0316,-0.0313,-0.031,-0.027,-0.0278,-0.0239,-0.0243,-0.0267,-0.0242,-0.0241,-0.0201,-0.0196,-0.0186,-0.0153,-0.015,-0.0156,-0.0154,-0.0153,-0.0153,0,0,0,0,0,0,0,-0.0369,-0.0363,-0.0316,-0.0316,-0.0312,-0.0299,-0.0294,-0.0271,-0.0237,-0.0265,-0.0262,-0.0257,-0.0199,-0.0188,-0.0184,-0.0149,-0.0156,-0.0154,-0.0152,-0.0151,-0.0116,-0.0117,0,0,0,0,0,0,-0.0377,-0.0366,-0.0318,-0.0315,-0.0338,-0.0299,-0.0292,-0.0283,-0.0237,-0.023,-0.0257,-0.0255,-0.0193,-0.0187,-0.0181,-0.0181,-0.0153,-0.0151,-0.0149,-0.0115,-0.0116,-0.0117,0,0,0,0,0,0,-0.0378,-0.0373,-0.032,-0.034,-0.0332,-0.0298,-0.0288,-0.0282,-0.0272,-0.0231,-0.0224,-0.0254,-0.0192,-0.0185,-0.0169,-0.0178,-0.015,-0.0147,-0.0115,-0.0116,-0.0117,-0.0175,0,0,0,0,0,0,-0.038,-0.0374,-0.0374,-0.034,-0.0331,-0.0313,-0.0288,-0.0281,-0.027,-0.0267,-0.0226,-0.0219,-0.0191,-0.0174,-0.0167,-0.0174,-0.0145,-0.0114,-0.0115,-0.0116,-0.0172,-0.0178,-0.0182,0,0,0,0,0,-0.0383,-0.0387,-0.0374,-0.0369,-0.0331,-0.0314,-0.0308,-0.0282,-0.027,-0.0271,-0.0246,-0.022,-0.0176,-0.0172,-0.0164,-0.017,-0.0113,-0.0115,-0.0116,-0.017,-0.0176,-0.0182,0,0,0,0,0,0,-0.0417,-0.0382,-0.0368,-0.0361,-0.0342,-0.0307,-0.0307,-0.0288,-0.0268,-0.0266,-0.0227,-0.0218,-0.0209,-0.0183,-0.018,-0.0164,-0.014,-0.014,-0.0184,-0.019,-0.0195,-0.02,-0.0143,0,0,0,0,0,-0.0424,-0.0417,-0.0383,-0.0381,-0.0372,-0.034,-0.0331,-0.0313,-0.029,-0.0281,-0.0253,-0.0226,-0.0208,-0.0195,-0.0174,-0.0164,-0.0135,-0.0163,-0.0168,-0.0173,-0.0172,-0.0139,-0.0141,-0.0121,-0.0121,-0.0121,0,0,-0.0437,-0.0418,-0.0414,-0.0388,-0.037,-0.0368,-0.0334,-0.0324,-0.0323,-0.0276,-0.0269,-0.0244,-0.0211,-0.0202,-0.0195,-0.0181,-0.0165,-0.0175,-0.0179,-0.0176,-0.014,-0.0142,-0.0144,-0.0122,-0.0122,-0.0122,0,0,-0.0466,-0.0442,-0.0448,-0.0435,-0.0413,-0.0392,-0.0392,-0.036,-0.0347,-0.0336,-0.0306,-0.0287,-0.0256,-0.0234,-0.0219,-0.0239,-0.0195,-0.0233,-0.0258,-0.0226,-0.0227,-0.0228,-0.02,-0.0198,-0.0232,-0.0233,-0.0233,0,-0.0485,-0.0483,-0.045,-0.0455,-0.0451,-0.0407,-0.0419,-0.0399,-0.0368,-0.0359,-0.0343,-0.0299,-0.0271,-0.0258,-0.0264,-0.025,-0.0225,-0.0239,-0.0233,-0.0233,-0.0232,-0.0203,-0.02,-0.0235,-0.0235,-0.0235,-0.0235,0,-0.0519,-0.0518,-0.0522,-0.0512,-0.0505,-0.0506,-0.0476,-0.0465,-0.0441,-0.0417,-0.0398,-0.0357,-0.0329,-0.0319,-0.0296,-0.0283,-0.0264,-0.0246,-0.0218,-0.0238,-0.0206,-0.0202,-0.024,-0.0239,-0.0238,-0.0237,0,0,-0.0558,-0.0548,-0.055,-0.0561,-0.0536,-0.0538,-0.0532,-0.0515,-0.0513,-0.0474,-0.0468,-0.043,-0.0398,-0.0379,-0.0345,-0.0314,-0.0291,-0.0281,-0.0278,-0.0255,-0.0221,-0.0193,-0.0185,-0.027,-0.0269,-0.0269,-0.0203,0,-0.0596,-0.0622,-0.0603,-0.0633,-0.0645,-0.0609,-0.061,-0.0588,-0.0558,-0.0538,-0.0484,-0.0466,-0.0424,-0.0412,-0.0374,-0.0312,-0.028,-0.031,-0.0204,-0.0201,-0.0174,-0.0179,-0.0145,-0.0082,-0.0198,-0.0198,-0.0197,0,-0.0635,-0.0647,-0.0682,-0.0695,-0.0697,-0.0708,-0.0702,-0.0694,-0.0647,-0.0623,-0.0582,-0.0534,-0.0483,-0.0445,-0.0344,-0.0365,-0.03,-0.0247,-0.0243,-0.0191,-0.0164,-0.0078,-0.0068,-0.0189,-0.0189,-0.019,-0.0191,0,-0.0687,-0.0705,-0.0738,-0.0742,-0.0744,-0.0758,-0.0755,-0.0722,-0.072,-0.0672,-0.0661,-0.0588,-0.0552,-0.0462,-0.0345,-0.0346,-0.0227,-0.0215,-0.0128,-0.0126,-0.0062,-0.0054,-0.0144,-0.0144,-0.0144,-0.0144,-0.0145,0,-0.0735,-0.0761,-0.0768,-0.0789,-0.0835,-0.0812,-0.0842,-0.0824,-0.0794,-0.08,-0.0709,-0.069,-0.0553,-0.0464,-0.036,-0.0226,-0.0236,-0.013,-0.0105,-0.0082,-0.0078,-0.0142,-0.0142,-0.0142,-0.0143,-0.0143,-0.0143,0,-0.0786,-0.0786,-0.0831,-0.085,-0.0863,-0.0894,-0.091,-0.0925,-0.0881,-0.0884,-0.0872,-0.0765,-0.0649,-0.0502,-0.0349,-0.0249,-0.0123,-0.0073,-0.0057,-0.003,-0.0043,-0.0047,0.0021,0.0023,0.0024,0.0025,0.0026,0,-0.0814,-0.0839,-0.0888,-0.0924,-0.094,-0.0976,-0.1004,-0.0979,-0.0992,-0.0934,-0.0943,-0.0823,-0.0748,-0.0496,-0.0278,-0.0081,-0.0096,0.0055,0.0059,-0.0043,-0.0024,-0.0031,-0.0037,0.012,0.0121,0.0123,0.0124,0,-0.0868,-0.0883,-0.0923,-0.0999,-0.1047,-0.1095,-0.1129,-0.1153,-0.1121,-0.111,-0.1076,-0.1005,-0.0731,-0.0479,-0.0188,-0.0063,0.0027,0.0087,-0.0008,0.0066,0.0054,0.007,0.0061,0.0136,0.0135,0.0134,0.0133,0.0133,-0.0908,-0.095,-0.1005,-0.1079,-0.1137,-0.1206,-0.1255,-0.1253,-0.1274,-0.122,-0.1154,-0.0999,-0.0731,-0.0303,-0.0077,0.0151,0.0109,0.0182,0.0176,0.017,0.0163,0.0153,0.0252,0.0252,0.0252,0.0251,0.0251,0,-0.0938,-0.1009,-0.1082,-0.117,-0.1229,-0.1262,-0.1335,-0.1325,-0.1338,-0.1242,-0.1158,-0.0853,-0.0538,-0.0268,0.0106,0.0298,0.0305,0.0336,0.0314,0.0301,0.029,0.0288,0.0412,0.0412,0.0413,0.0414,0,0,-0.0962,-0.1032,-0.1071,-0.1206,-0.1289,-0.1356,-0.1403,-0.1376,-0.1297,-0.1195,-0.1067,-0.0848,-0.0538,-0.0238,0.0036,0.0232,0.0214,0.0262,0.0117,0.0049,0.0036,0.0192,0.0173,0,0,0,0,0]}],[{"header":{"parameterUnit":"m.s-1","parameterCategory":2,"la1":30.2991,"la2":30.254,"lo1":-89.0895,"lo2":-89.0444,"dy":0.0017,"dx":0.0017,"nx":28,"ny":28,"refTime":"2023-10-30T09:00:00:Z","depth":"4","parameterNumber":2,"parameterNumberName":"U-component_of_CURRENTS"},"data":[0,0,0,0,0,0,0,0,0,0,0,0,0,0,0,0,0,0,0,0,0,0,0,0,0,0,0,0,0,0,0,0,0,0,0,0,0,0,0,0,0,0,0,0,0,0,0,0,0,0,0,0,0,0,0,0,0,0,-0.1637,-0.1638,0,-0.1716,-0.1717,-0.1718,-0.1762,-0.1762,-0.1762,-0.1763,-0.185,-0.1852,-0.1854,0,0,0,0,0,0,0,0,0,0,0,0,0,-0.1552,-0.1553,-0.1637,-0.1638,-0.1639,-0.1716,-0.1717,-0.1718,-0.1762,-0.1762,-0.1762,-0.1763,-0.1849,-0.1852,-0.1854,0,0,0,0,0,0,0,0,0,0,0,0,0,-0.1605,-0.1554,-0.1637,-0.1671,-0.1675,-0.1716,-0.1717,-0.1718,-0.1762,-0.1762,-0.1762,-0.1763,-0.1849,-0.1852,-0.1855,-0.1868,0,0,-0.1865,-0.1866,0,0,0,0,0,0,0,0,-0.1602,-0.1608,-0.1665,-0.1669,-0.1673,-0.173,-0.1719,-0.1769,-0.1762,-0.1728,-0.1763,-0.1763,-0.1811,-0.1817,-0.183,-0.1872,-0.1876,-0.1865,-0.1867,-0.1868,-0.1869,0,0,0,0,0,0,0,-0.1598,-0.1605,-0.1668,-0.1666,-0.1671,-0.1692,-0.1699,-0.1729,-0.1766,-0.1731,-0.1735,-0.1745,-0.1813,-0.1827,-0.1833,-0.1877,-0.1865,-0.1868,-0.187,-0.1871,-0.2009,-0.2011,0,0,0,0,0,0,-0.1589,-0.1602,-0.1665,-0.167,-0.1639,-0.1693,-0.1702,-0.1711,-0.1766,-0.1775,-0.1744,-0.1746,-0.1821,-0.1829,-0.1836,-0.192,-0.1868,-0.1871,-0.1873,-0.2007,-0.2009,-0.2011,0,0,0,0,0,0,-0.1586,-0.1593,-0.1662,-0.1638,-0.1649,-0.1694,-0.1705,-0.1712,-0.1751,-0.1776,-0.1785,-0.1778,-0.1822,-0.1831,-0.189,-0.1921,-0.1873,-0.1876,-0.2005,-0.2008,-0.201,-0.2045,0,0,0,0,0,0,-0.1584,-0.1592,-0.1609,-0.1638,-0.165,-0.1701,-0.1705,-0.1714,-0.1756,-0.176,-0.1807,-0.1814,-0.1823,-0.1886,-0.1894,-0.1924,-0.1878,-0.2003,-0.2006,-0.2009,-0.2042,-0.2049,-0.2055,0,0,0,0,0,-0.158,-0.1597,-0.1609,-0.1618,-0.1667,-0.1702,-0.1711,-0.1743,-0.1757,-0.1779,-0.1817,-0.1814,-0.1912,-0.189,-0.1899,-0.1931,-0.2001,-0.2005,-0.2009,-0.2039,-0.2048,-0.2055,0,0,0,0,0,0,-0.1571,-0.1604,-0.1618,-0.1645,-0.1679,-0.171,-0.1737,-0.1758,-0.1805,-0.1818,-0.1839,-0.1849,-0.191,-0.192,-0.1895,-0.1981,-0.1955,-0.1961,-0.1975,-0.1983,-0.199,-0.1975,-0.1881,0,0,0,0,0,-0.1575,-0.1598,-0.1631,-0.1656,-0.1673,-0.171,-0.1734,-0.1758,-0.1797,-0.1819,-0.1854,-0.1893,-0.1929,-0.1956,-0.1987,-0.2038,-0.2025,-0.2065,-0.2071,-0.2076,-0.2072,-0.2085,-0.2092,-0.2024,-0.2024,-0.2024,0,0,-0.1579,-0.1601,-0.1615,-0.1656,-0.1685,-0.1719,-0.1726,-0.177,-0.1808,-0.1821,-0.1892,-0.1919,-0.1948,-0.2003,-0.2032,-0.2019,-0.209,-0.2081,-0.2085,-0.2078,-0.209,-0.2096,-0.2102,-0.2027,-0.2026,-0.2026,0,0,-0.1591,-0.1618,-0.164,-0.167,-0.1717,-0.1742,-0.176,-0.181,-0.1844,-0.1908,-0.1926,-0.1972,-0.2036,-0.2058,-0.2077,-0.2139,-0.2122,-0.2157,-0.218,-0.2194,-0.2199,-0.2203,-0.219,-0.2193,-0.2161,-0.2161,-0.2161,0,-0.1597,-0.1626,-0.1654,-0.1684,-0.1714,-0.1755,-0.1791,-0.183,-0.1898,-0.1927,-0.1938,-0.2033,-0.2058,-0.2114,-0.2137,-0.2152,-0.2148,-0.2146,-0.22,-0.2204,-0.2208,-0.2194,-0.2196,-0.2164,-0.2163,-0.2163,-0.2163,0,-0.1617,-0.1653,-0.167,-0.1721,-0.176,-0.1797,-0.185,-0.19,-0.1946,-0.1981,-0.2055,-0.2092,-0.2141,-0.2163,-0.2171,-0.2219,-0.2203,-0.2202,-0.2173,-0.2216,-0.2199,-0.2201,-0.2167,-0.2166,-0.2165,-0.2165,0,0,-0.1591,-0.1669,-0.1678,-0.1709,-0.1783,-0.1812,-0.1884,-0.1949,-0.1993,-0.2059,-0.2111,-0.2178,-0.2193,-0.2214,-0.2232,-0.2249,-0.2272,-0.2241,-0.2241,-0.2215,-0.2286,-0.2153,-0.2142,-0.2284,-0.2285,-0.2285,-0.2261,0,-0.1599,-0.1655,-0.1699,-0.1764,-0.1795,-0.186,-0.1919,-0.1987,-0.2046,-0.2106,-0.2151,-0.2206,-0.2214,-0.224,-0.2261,-0.2273,-0.2281,-0.2277,-0.226,-0.2259,-0.2124,-0.2141,-0.2288,-0.2262,-0.2263,-0.2263,-0.2263,0,-0.1593,-0.1635,-0.1697,-0.1781,-0.1803,-0.1854,-0.1947,-0.2004,-0.2093,-0.2138,-0.2197,-0.223,-0.2278,-0.2273,-0.2304,-0.2303,-0.2297,-0.2296,-0.2296,-0.2156,-0.2128,-0.2215,-0.2266,-0.2266,-0.2266,-0.2266,-0.2266,0,-0.1539,-0.1628,-0.1678,-0.1708,-0.1812,-0.1861,-0.192,-0.2016,-0.2064,-0.2155,-0.2193,-0.2253,-0.2284,-0.2297,-0.2307,-0.231,-0.2321,-0.232,-0.219,-0.218,-0.2292,-0.2288,-0.2329,-0.2329,-0.233,-0.233,-0.233,0,-0.1507,-0.1549,-0.1662,-0.1686,-0.1751,-0.1835,-0.1908,-0.1976,-0.2067,-0.211,-0.22,-0.2229,-0.2294,-0.2313,-0.2311,-0.2245,-0.2322,-0.2183,-0.2164,-0.2308,-0.2306,-0.2293,-0.2289,-0.2329,-0.2329,-0.2329,-0.2329,0,-0.143,-0.1508,-0.1567,-0.1685,-0.1725,-0.1769,-0.1891,-0.193,-0.2034,-0.209,-0.2118,-0.2215,-0.2231,-0.2272,-0.2287,-0.2228,-0.2195,-0.2156,-0.2293,-0.2285,-0.2043,-0.2041,-0.1991,-0.1986,-0.1982,-0.1978,-0.1975,0,-0.1393,-0.1417,-0.1544,-0.1581,-0.1639,-0.1723,-0.1772,-0.1894,-0.1931,-0.206,-0.2064,-0.2132,-0.2177,-0.2084,-0.2144,-0.2112,-0.2099,-0.2059,-0.2056,-0.202,-0.2008,-0.2013,-0.2018,-0.1969,-0.1968,-0.1966,-0.1965,0,-0.1313,-0.1371,-0.1422,-0.1495,-0.156,-0.1617,-0.1697,-0.1713,-0.1838,-0.1951,-0.1957,-0.1966,-0.198,-0.1986,-0.1974,-0.1958,-0.2071,-0.2015,-0.2024,-0.2021,-0.1993,-0.1986,-0.1995,-0.1951,-0.1953,-0.1954,-0.1955,0,-0.1252,-0.1267,-0.1338,-0.1391,-0.1468,-0.1485,-0.1547,-0.1589,-0.1642,-0.1788,-0.1782,-0.1865,-0.1954,-0.1906,-0.1899,-0.1866,-0.1841,-0.1782,-0.1802,-0.1819,-0.1776,-0.1716,-0.1561,0,0,0,0,0,-0.1172,-0.1177,-0.1224,-0.1277,-0.1347,-0.1383,-0.1482,-0.1546,-0.167,-0.1626,-0.17,-0.1708,-0.1702,-0.175,-0.1679,-0.1819,-0.1846,-0.1729,-0.1788,-0.187,-0.1887,-0.1853,0,0,0,0,0,0,-0.1118,-0.1155,-0.118,-0.1167,-0.1178,-0.1232,-0.1287,-0.1373,-0.1362,-0.1496,-0.1501,-0.1601,-0.162,-0.1714,-0.1643,-0.1654,-0.1656,-0.1786,-0.1782,-0.1861,-0.1876,-0.1889,-0.186,0,0,0,0,0]},{"header":{"parameterUnit":"m.s-1","parameterCategory":2,"la1":30.2991,"la2":30.254,"lo1":-89.0895,"lo2":-89.0444,"dy":0.0017,"dx":0.0017,"nx":28,"ny":28,"refTime":"2023-10-30T09:00:00:Z","depth":"4","parameterNumber":3,"parameterNumberName":"V-component_of_CURRENTS"},"data":[0,0,0,0,0,0,0,0,0,0,0,0,0,0,0,0,0,0,0,0,0,0,0,0,0,0,0,0,0,0,0,0,0,0,0,0,0,0,0,0,0,0,0,0,0,0,0,0,0,0,0,0,0,0,0,0,0,0,0.0033,0.0033,0,0.0054,0.0054,0.0054,0.0078,0.0078,0.0078,0.0079,0.0127,0.0128,0.0129,0,0,0,0,0,0,0,0,0,0,0,0,0,0.0016,0.0016,0.0033,0.0033,0.0033,0.0053,0.0054,0.0054,0.0078,0.0078,0.0079,0.0079,0.0126,0.0127,0.0129,0,0,0,0,0,0,0,0,0,0,0,0,0,0.0029,0.0016,0.0033,0.0047,0.0049,0.0053,0.0054,0.0054,0.0078,0.0078,0.0079,0.0079,0.0126,0.0127,0.0129,0.0128,0,0,0.0133,0.0134,0,0,0,0,0,0,0,0,0.0028,0.003,0.0045,0.0046,0.0048,0.0063,0.0065,0.008,0.0078,0.0067,0.0079,0.0079,0.0107,0.011,0.0113,0.013,0.0133,0.0133,0.0134,0.0135,0.0135,0,0,0,0,0,0,0,0.0027,0.0029,0.0042,0.0045,0.0047,0.0053,0.0056,0.0068,0.0085,0.0068,0.007,0.0071,0.0109,0.0112,0.0115,0.0133,0.0133,0.0135,0.0136,0.0136,0.0144,0.0143,0,0,0,0,0,0,0.0023,0.0028,0.0041,0.0042,0.0039,0.0053,0.0056,0.0058,0.0084,0.0089,0.0071,0.0072,0.0109,0.0113,0.0117,0.0104,0.0135,0.0136,0.0137,0.0144,0.0144,0.0143,0,0,0,0,0,0,0.0023,0.0024,0.004,0.0035,0.0038,0.0053,0.0055,0.0058,0.0061,0.0086,0.0091,0.0071,0.011,0.0114,0.012,0.0107,0.0137,0.0138,0.0145,0.0144,0.0143,0.0088,0,0,0,0,0,0,0.0022,0.0024,0.0021,0.0035,0.0038,0.0037,0.0055,0.0058,0.0061,0.0063,0.0087,0.0092,0.011,0.0118,0.0121,0.011,0.0139,0.0146,0.0145,0.0143,0.0091,0.0086,0.0081,0,0,0,0,0,0.0022,0.0014,0.0021,0.0023,0.0035,0.0036,0.0038,0.0051,0.0061,0.0056,0.0071,0.0092,0.0112,0.0118,0.0123,0.0111,0.0147,0.0145,0.0144,0.0093,0.0087,0.0081,0,0,0,0,0,0,0.0005,0.0016,0.0024,0.0021,0.0026,0.004,0.0036,0.0047,0.0055,0.0057,0.0083,0.0089,0.0088,0.0106,0.0112,0.0109,0.0133,0.0132,0.0093,0.0087,0.0082,0.0075,0.0141,0,0,0,0,0,-0.0,-0.0003,0.001,0.0006,0.0007,0.0021,0.0023,0.0031,0.0042,0.0046,0.0062,0.0077,0.0085,0.0092,0.0102,0.0101,0.0123,0.0097,0.0092,0.0088,0.0084,0.0103,0.0099,0.0138,0.0138,0.0138,0,0,-0.0007,-0.0002,-0.0003,0.0002,0.0008,-0.0001,0.0024,0.0022,0.0013,0.005,0.0042,0.006,0.008,0.0076,0.0078,0.0091,0.0087,0.0086,0.0082,0.0081,0.0101,0.0097,0.0094,0.0137,0.0137,0.0137,0,0,-0.0029,-0.0019,-0.0031,-0.003,-0.0026,-0.002,-0.0022,-0.0011,-0.0008,-0.0011,0.001,0.0019,0.0033,0.0043,0.005,0.0025,0.0058,0.0028,-0.0001,0.0017,0.0014,0.0012,0.0031,0.0031,0.0028,0.0027,0.0027,0,-0.004,-0.0052,-0.0035,-0.0049,-0.0055,-0.0031,-0.005,-0.0045,-0.0035,-0.0035,-0.0021,-0.0004,0.0015,0.0011,0.0002,0.0013,0.003,0.002,0.001,0.0008,0.0007,0.0028,0.0029,0.0025,0.0025,0.0025,0.0025,0,-0.007,-0.0082,-0.009,-0.01,-0.0104,-0.0116,-0.0108,-0.011,-0.01,-0.009,-0.009,-0.0064,-0.0052,-0.0047,-0.003,-0.0034,-0.0017,-0.0,0.0025,-0.0,0.0024,0.0025,0.0021,0.0022,0.0022,0.0023,0,0,-0.0086,-0.0109,-0.0112,-0.0131,-0.0133,-0.0143,-0.0157,-0.0163,-0.0174,-0.0155,-0.0165,-0.0147,-0.0123,-0.0113,-0.0089,-0.0072,-0.0066,-0.0044,-0.0041,-0.0025,-0.0025,0.0002,0.0007,-0.0051,-0.0051,-0.0051,-0.0006,0,-0.0116,-0.0158,-0.0159,-0.0201,-0.0222,-0.0212,-0.0231,-0.0231,-0.022,-0.0221,-0.0188,-0.0186,-0.0152,-0.0147,-0.0126,-0.0082,-0.0063,-0.0079,-0.0002,0.0,0.0026,0.0009,-0.0051,-0.0004,-0.0004,-0.0003,-0.0003,0,-0.0144,-0.017,-0.0218,-0.0258,-0.0266,-0.0289,-0.0311,-0.0322,-0.031,-0.0301,-0.0282,-0.0251,-0.0227,-0.0192,-0.0128,-0.014,-0.009,-0.0051,-0.0048,-0.0002,0.003,0.0028,0.0001,0.0,0.0,-0.0,-0.0,0,-0.0164,-0.0212,-0.0254,-0.0267,-0.0304,-0.0328,-0.0345,-0.0346,-0.0361,-0.0347,-0.0348,-0.0308,-0.029,-0.0226,-0.0136,-0.0136,-0.0056,-0.0044,0.0027,0.003,0.0017,0.0019,-0.0,-0.0,-0.0,-0.0,-0.0001,0,-0.0191,-0.0225,-0.0272,-0.0296,-0.0355,-0.0361,-0.041,-0.0417,-0.0422,-0.0442,-0.039,-0.0386,-0.0297,-0.0235,-0.0154,-0.0054,-0.0067,0.0019,0.0042,-0.0007,-0.0008,0.0019,0.002,0.0001,0.0001,0.0001,0.0,0,-0.0198,-0.0229,-0.0285,-0.0342,-0.0368,-0.0406,-0.0463,-0.0491,-0.0485,-0.0508,-0.0507,-0.0447,-0.0367,-0.0264,-0.0155,-0.0079,0.0016,0.0057,-0.0001,0.0018,0.0091,0.009,0.0126,0.0127,0.0128,0.0129,0.013,0,-0.0204,-0.0231,-0.0321,-0.0368,-0.04,-0.0459,-0.0505,-0.0525,-0.0548,-0.0543,-0.0552,-0.0483,-0.0431,-0.0256,-0.0141,0.0016,0.0044,0.0096,0.0089,0.0085,0.0104,0.01,0.0097,0.0132,0.0132,0.0132,0.0133,0,-0.0206,-0.024,-0.029,-0.0395,-0.0462,-0.0532,-0.059,-0.0614,-0.0629,-0.0628,-0.0591,-0.0496,-0.0399,-0.0258,-0.0128,-0.0015,0.0062,0.0108,0.0106,0.01,0.0093,0.0109,0.0105,0.0136,0.0136,0.0135,0.0135,0,-0.0197,-0.024,-0.0317,-0.041,-0.0502,-0.0579,-0.0613,-0.0641,-0.066,-0.0647,-0.0634,-0.0522,-0.046,-0.0273,-0.0153,-0.0036,-0.0011,0.003,0.0033,0.003,-0.0003,-0.0026,-0.0004,0,0,0,0,0,-0.0165,-0.0223,-0.0327,-0.0434,-0.0533,-0.0586,-0.0658,-0.0679,-0.0696,-0.0678,-0.0656,-0.0564,-0.0381,-0.0294,-0.0176,-0.0131,0.0013,0.0014,0.0061,0.0157,0.0153,0.0134,0,0,0,0,0,0,-0.0145,-0.0225,-0.0314,-0.0438,-0.0514,-0.0613,-0.0662,-0.068,-0.0662,-0.0661,-0.0566,-0.0519,-0.0343,-0.045,-0.0168,-0.0132,-0.0082,0.0098,0.0101,0.016,0.0156,0.0152,0.0131,0,0,0,0,0]}]]